Retour au catalogue

FENGYUN 1C DEB

ActifSSO
NORAD 29846·DEBRIS·🇨🇳 China

Lancé May 10, 1999 depuis Taiyuan Satellite Launch Center

Loading…

Prochains Passages (prochaines 24 heures)

TLE

FraisSource: Space-Track

Époque: Sep 14, 2026, 21:28 UTC

1 29846U 99025EQ  26257.89459602  .00000140  00000-0  84240-4 0  9996
2 29846  98.6201 297.7539 0083855 227.0839 311.1186 14.19236831 17747

Suivez FENGYUN 1C DEB en temps réel avec AllMySat

Download on the App Store